Location: Asheville, NC
(35.6000°N, 82.5500°W)
Time: 01:28:00
(UTC-05:00)

Vanguard 2 Rocket - Pass Details

Date: 15 February 2018
Orbit: 555 x 3327 km, 32.9° (Epoch: 23 February)

Event Time Altitude Azimuth Distance (km) Brightness Sun altitude
Rises 23:19:57 0° 226° (SW) 5,153 - -60.0°
Reaches altitude 10° 23:22:56 10° 222° (SW) 4,474 - -60.4°
Maximum altitude 23:35:59 54° 149° (SSE) 3,220 - -62.1°
Drops below altitude 10° 23:54:56 10° 79° (E) 6,284 - -64.2°
Exits shadow 23:56:11 - 78° (ENE) 6,537 11.1 -64.3°
Sets 00:00:01 0° 76° (ENE) 7,296 11.5 -64.7°
